560  
SXUS52 KTAE 132016  
OSOTAE  
OSOTAE  
NORTH FLORIDA/SOUTH ALABAMA/SOUTHWEST GEORGIA WEATHER ROUNDUP  
NATIONAL WEATHER SERVICE TALLAHASSEE FLORIDA  
400 PM EDT THU AUG 13 2020  
 
NOTE: "FAIR" INDICATES FEW OR NO CLOUDS BELOW 12,000 FEET WITH NO  
SIGNIFICANT WEATHER AND/OR OBSTRUCTIONS TO VISIBILITY.  
 
!FLZ017-115-028-034-025-132100   
..NORTH FLORIDA
 
 
 
CITY SKY/WX TMP DP RH WIND PRES REMARKS  
TALL INTL ARPT PTSUNNY 92 74 55 S8 29.96F HX 101  
FSU LOVE BLDG N/A N/A N/A N/A MISG N/A  
APALACHICOLA MOSUNNY 90 75 61 SW12 29.99F HX 100  
PERRY NOT AVBL  
CROSS CITY PTSUNNY 84 75 74 NE6 29.99S HX 92  
JACKSONVILLE PTSUNNY 92 74 55 S10 29.94F HX 101  

 
 
!FLZ112-006-005-002-011-132100   
..FLORIDA PANHANDLE
 
 
 
CITY SKY/WX TMP DP RH WIND PRES REMARKS  
MARIANNA MOSUNNY 89 75 63 SW12 29.93F THUNDER HX 99  
BONIFAY NOT AVBL  
PANAMA CITY NW FAIR 87 80 79 S9 29.96F HX 103  
TYNDALL AFB MOSUNNY 85 76 75 S9 29.97 HX 94  
TYND DRONE APT FAIR 88 75 66 S10 29.98F HX 98  
DE FUNIAK SPR FAIR 81 75 80 SW7 29.97F  
EGLIN AFB LGT RAIN 77 73 88 W3 29.96  
DESTIN LGT RAIN 78 75 90 CALM 29.96 FOG  
HURLBURT LGT RAIN 80 71 75 N9 29.97  
CRESTVIEW PTSUNNY 81 74 79 VRB5 29.98S  
PENSACOLA N/A N/A N/A N/A MISG N/A  

 
 
!ALZ063-066-132100   
..SOUTH ALABAMA
 
 
 
CITY SKY/WX TMP DP RH WIND PRES REMARKS  
DOTHAN TSTM 77 71 82 E10G26 29.98F  
OZARK CAIRNS MOSUNNY 92 71 49 CALM 29.94 HX 99  
FT RUCKER HELI MOSUNNY 91 72 54 SW6 29.93F HX 98  
RUCKER HELI 3 PTSUNNY 85 76 74 SW3 29.93 HX 95  
RUCKER HELI 2 FAIR 92 72 52 SW6 29.92F HX 99  
FLORALA APT NOT AVBL  
ANDALUSIA MOSUNNY 96 70 42 W8 29.94 HX 102  
TROY MOSUNNY 92 72 51 SW6 29.95F HX 99  
EUFALA NOT AVBL  
MOBILE PTSUNNY 89 72 56 S10 29.97R HX 96  

 
 
!GAZ120>161-132100   
..SOUTHWEST AND SOUTH CENTRAL GEORGIA
 
 
 
CITY SKY/WX TMP DP RH WIND PRES REMARKS  
THOMASVILLE PTSUNNY 91 72 52 S3 29.97F HX 98  
BAINBRIDGE TSTM 77 74 90 W7 29.97F  
MOODY AFB PTSUNNY 86 75 70 N6 29.96 HX 95  
VALDOSTA PTSUNNY 93 71 48 S6 29.95F HX 100  
MOULTRIE PTSUNNY 90 70 51 N9 29.97F HX 95  
BLAKELY PTSUNNY 79 70 73 CALM 29.97F  
ALBANY PTSUNNY 89 73 59 N13 29.99R THUNDER HX 97  
TIFTON FAIR 80 74 84 S5 29.98  
FITZGERALD MOCLDY 81 76 85 S7 29.99F  
CORDELE FAIR 91 72 52 CALM 29.95F HX 99  
AMERICUS FAIR 95 72 46 W5 29.97F HX 103  
HOMERVILLE FAIR 86 73 66 N5 29.97F HX 93  

 
 
!GMZ750-755-770-775-132100   
..COASTAL AND BUOY OBS
 
 
 
STATION/POSITION TIME TEMP WIND PRES VSBY WAVE  
AIR SEA DIR/SP/G HT/PER  
(UTC) (F) (DEG/KT/KT) (MB) (MI) (FT/S)  
KEATON BEACH 2000 85 230/ 8/ 9 1015.7F  
CEDAR KEY 2000 88 250/ 5/ 7 1016.0F  
C TOWER 2000 80 200/ 9/ 10 1016.1F  
APALACHICOLA BUO 1950 330/ 8/ 10 1016.8F  
PANAMA CITY BUOY 2000 150/ 8/ 8 1015.3  
MOBILE BUOY 2000 85 180/ 6/ 8 1014.9  
ORANGE BCH AL BU 2000 85 170/ 8/ 10 1014.7  

 
 
 
CLICK HERE TO GO TO PREVIOUS BULLETINS.

The Nexlab FL Page
The Nexlab GA Page
The Nexlab AL Page Main Text Page